WA6MHA-11 Weather Reports


Display with metric or nautical units.
time (UTC)temp
F
wind
direction
speed
MPH
gust
MPH
rain 1hr
in
rain 24hr
in
rain mn
in
humidity
%
barometer
mb
20200926151945 64 83 0.0 5.0 0.00 0.00 0.00 45 1016.6
20200926151906 64 83 0.0 5.0 0.00 0.00 0.00 45 1016.6
20200926151516 64 58 3.0 4.0 0.00 0.00 0.00 46 1016.6
20200926151104 64 94 3.0 4.0 0.00 0.00 0.00 46 1016.6
20200926150702 64 180 2.0 3.0 0.00 0.00 0.00 46 1016.5
20200926150301 64 202 2.0 3.0 0.00 0.00 0.00 46 1016.5
20200926145900 63 182 1.0 1.0 0.00 0.00 0.00 46 1016.5
20200926145510 63 45 0.0 2.0 0.00 0.00 0.00 46 1016.4
20200926145119 63 45 1.0 5.0 0.00 0.00 0.00 46 1016.4
20200926144732 63 72 4.0 6.0 0.00 0.00 0.00 46 1016.3
20200926144655 63 72 4.0 6.0 0.00 0.00 0.00 46 1016.3
20200926144255 63 60 4.0 4.0 0.00 0.00 0.00 45 1016.3
20200926143854 63 92 2.0 4.0 0.00 0.00 0.00 45 1016.3
20200926143704 62 128 4.0 5.0 0.00 0.00 0.00 46 1016.3
20200926143453 62 128 4.0 5.0 0.00 0.00 0.00 46 1016.3
20200926143026 62 78 0.0 2.0 0.00 0.00 0.00 45 1016.3
20200926142651 62 78 0.0 2.0 0.00 0.00 0.00 45 1016.3
20200926142505 62 105 1.0 3.0 0.00 0.00 0.00 45 1016.3
20200926142252 62 105 1.0 3.0 0.00 0.00 0.00 45 1016.3
20200926142118 62 45 3.0 3.0 0.00 0.00 0.00 45 1016.2
20200926141848 62 45 3.0 3.0 0.00 0.00 0.00 45 1016.2
20200926141702 62 103 1.0 5.0 0.00 0.00 0.00 46 1016.2
20200926141452 62 103 1.0 5.0 0.00 0.00 0.00 46 1016.2
20200926141245 62 99 3.0 3.0 0.00 0.00 0.00 45 1016.2
20200926141044 62 99 3.0 3.0 0.00 0.00 0.00 45 1016.2
20200926140915 62 108 0.0 2.0 0.00 0.00 0.00 45 1016.2
20200926140642 62 108 0.0 2.0 0.00 0.00 0.00 45 1016.2
20200926140528 62 105 0.0 2.0 0.00 0.00 0.00 45 1016.2
20200926140244 62 105 0.0 2.0 0.00 0.00 0.00 45 1016.2
20200926140125 61 96 0.0 1.0 0.00 0.00 0.00 45 1016.1
20200926135840 61 96 0.0 1.0 0.00 0.00 0.00 45 1016.1
20200926135715 62 92 0.0 3.0 0.00 0.00 0.00 46 1016.1
20200926135440 62 92 0.0 3.0 0.00 0.00 0.00 46 1016.1
20200926135038 62 87 3.0 4.0 0.00 0.00 0.00 47 1016.0
20200926134904 61 96 5.0 6.0 0.00 0.00 0.00 47 1015.9
20200926134642 61 96 5.0 6.0 0.00 0.00 0.00 47 1015.9
20200926134439 60 182 0.0 1.0 0.00 0.00 0.00 45 1016.0
20200926134235 60 182 0.0 1.0 0.00 0.00 0.00 45 1016.0
20200926134111 60 180 0.0 0.0 0.00 0.00 0.00 45 1015.9
20200926133837 60 180 0.0 0.0 0.00 0.00 0.00 45 1015.9
20200926133639 60 182 0.0 0.0 0.00 0.00 0.00 45 1016.0
20200926133439 60 182 0.0 0.0 0.00 0.00 0.00 45 1016.0
20200926133236 60 180 0.0 1.0 0.00 0.00 0.00 45 1016.0
20200926133039 60 180 0.0 1.0 0.00 0.00 0.00 45 1016.0
20200926132929 59 180 0.0 0.0 0.00 0.00 0.00 45 1016.0
20200926132633 59 180 0.0 0.0 0.00 0.00 0.00 45 1016.0
20200926132429 59 180 0.0 0.0 0.00 0.00 0.00 45 1016.0
20200926132236 59 180 0.0 0.0 0.00 0.00 0.00 45 1016.0
20200926131802 59 182 0.0 0.0 0.00 0.00 0.00 45 1015.9
20200926131427 59 182 0.0 0.0 0.00 0.00 0.00 45 1015.9
20200926131320 59 182 0.0 0.0 0.00 0.00 0.00 45 1015.8
20200926131024 59 182 0.0 0.0 0.00 0.00 0.00 45 1015.8
20200926130440 58 180 0.0 0.0 0.00 0.00 0.00 45 1015.9
20200926130223 58 180 0.0 0.0 0.00 0.00 0.00 45 1015.9
20200926130141 58 180 0.0 0.0 0.00 0.00 0.00 45 1015.8
20200926125802 58 180 0.0 0.0 0.00 0.00 0.00 45 1015.8
20200926125420 58 180 0.0 0.0 0.00 0.00 0.00 45 1015.8
20200926125334 58 182 0.0 0.0 0.00 0.00 0.00 45 1015.9
20200926125020 58 182 0.0 0.0 0.00 0.00 0.00 45 1015.9
20200926124951 58 184 0.0 0.0 0.00 0.00 0.00 45 1015.8
20200926124617 58 184 0.0 0.0 0.00 0.00 0.00 45 1015.8
20200926124139 58 182 0.0 0.0 0.00 0.00 0.00 45 1015.9
20200926123815 58 182 0.0 0.0 0.00 0.00 0.00 45 1015.9
20200926123721 57 182 0.0 0.0 0.00 0.00 0.00 44 1015.9
20200926123417 57 182 0.0 0.0 0.00 0.00 0.00 44 1015.9
20200926123236 57 182 0.0 0.0 0.00 0.00 0.00 44 1015.9
20200926123020 57 182 0.0 0.0 0.00 0.00 0.00 44 1015.9
20200926122430 57 180 0.0 0.0 0.00 0.00 0.00 44 1015.8
20200926122213 57 180 0.0 0.0 0.00 0.00 0.00 44 1015.8
20200926122155 57 182 0.0 0.0 0.00 0.00 0.00 44 1015.8
20200926121808 57 182 0.0 0.0 0.00 0.00 0.00 44 1015.8
20200926121653 57 180 0.0 0.0 0.00 0.00 0.00 44 1015.7
20200926121409 57 180 0.0 0.0 0.00 0.00 0.00 44 1015.7
20200926121250 56 182 0.0 0.0 0.00 0.00 0.00 44 1015.7
20200926121012 56 182 0.0 0.0 0.00 0.00 0.00 44 1015.7
20200926120912 56 180 0.0 0.0 0.00 0.00 0.00 44 1015.7
20200926120604 56 180 0.0 0.0 0.00 0.00 0.00 44 1015.7
20200926120418 56 180 0.0 0.0 0.00 0.00 0.00 44 1015.8
20200926120203 56 180 0.0 0.0 0.00 0.00 0.00 44 1015.8
20200926120053 56 182 0.0 0.0 0.00 0.00 0.00 44 1015.8
20200926115802 56 182 0.0 0.0 0.00 0.00 0.00 44 1015.8
20200926115744 56 180 0.0 0.0 0.00 0.00 0.00 44 1015.7
20200926115407 56 180 0.0 0.0 0.00 0.00 0.00 44 1015.7
20200926115247 56 180 0.0 1.0 0.00 0.00 0.00 44 1015.8
20200926115005 56 180 0.0 1.0 0.00 0.00 0.00 44 1015.8
20200926114910 56 180 0.0 1.0 0.00 0.00 0.00 44 1015.7
20200926114558 56 180 0.0 1.0 0.00 0.00 0.00 44 1015.7
20200926114427 56 180 1.0 1.0 0.00 0.00 0.00 44 1015.7
20200926114159 56 180 1.0 1.0 0.00 0.00 0.00 44 1015.7
20200926114137 56 180 0.0 1.0 0.00 0.00 0.00 44 1015.7
20200926113755 56 180 0.0 1.0 0.00 0.00 0.00 44 1015.7
20200926113717 56 182 1.0 1.0 0.00 0.00 0.00 44 1015.8
20200926113354 56 182 1.0 1.0 0.00 0.00 0.00 44 1015.8
20200926113228 56 184 0.0 1.0 0.00 0.00 0.00 44 1015.8
20200926112955 56 184 0.0 1.0 0.00 0.00 0.00 44 10.1
20200926112953 56 184 0.0 1.0 0.00 0.00 0.00 44 1015.8
20200926112858 56 180 1.0 1.0 0.00 0.00 0.00 44 1015.8
20200926112551 56 180 1.0 1.0 0.00 0.00 0.00 44 1015.8
20200926112155 56 180 0.0 1.0 0.00 0.00 0.00 44 1015.7
20200926112030 56 180 0.0 1.0 0.00 0.00 0.00 44 1015.8
20200926111757 56 180 0.0 0.0 0.00 0.00 0.00 44 1015.9
20200926111352 56 180 0.0 0.0 0.00 0.00 0.00 44 1015.9
20200926111145 56 182 1.0 1.0 0.00 0.00 0.00 44 1015.9
20200926110949 56 184 0.0 0.0 0.00 0.00 0.00 44 1015.9
20200926110545 56 182 1.0 1.0 0.00 0.00 0.00 44 1015.9
20200926110506 56 180 0.0 1.0 0.00 0.00 0.00 43 1015.9
20200926110144 56 180 0.0 1.0 0.00 0.00 0.00 43 1015.9
20200926105748 56 180 0.0 1.0 0.00 0.00 0.00 43 1016.0
20200926105627 56 180 0.0 1.0 0.00 0.00 0.00 43 1016.0
20200926105343 56 180 0.0 1.0 0.00 0.00 0.00 43 1016.0
20200926105306 56 180 0.0 1.0 0.00 0.00 0.00 43 1016.1
20200926104940 56 180 0.0 1.0 0.00 0.00 0.00 43 1016.1
20200926104926 56 180 1.0 1.0 0.00 0.00 0.00 43 1016.0
20200926104546 56 180 1.0 1.0 0.00 0.00 0.00 43 1016.0
20200926104420 56 180 0.0 1.0 0.00 0.00 0.00 43 1016.1
20200926104138 56 180 0.0 1.0 0.00 0.00 0.00 43 1016.1
20200926104110 56 180 0.0 0.0 0.00 0.00 0.00 43 1016.1
20200926103742 56 180 0.0 0.0 0.00 0.00 0.00 43 1016.1
20200926103640 56 180 0.0 1.0 0.00 0.00 0.00 43 1016.1
20200926103335 56 180 0.0 1.0 0.00 0.00 0.00 43 1016.1
20200926103225 56 227 0.0 1.0 0.00 0.00 0.00 43 1016.1
20200926102936 56 227 0.0 1.0 0.00 0.00 0.00 43 1016.1
20200926102916 57 180 0.0 1.0 0.00 0.00 0.00 43 1016.1
20200926102532 57 180 0.0 1.0 0.00 0.00 0.00 43 1016.1
20200926102100 57 182 2.0 2.0 0.00 0.00 0.00 43 1016.2
20200926101729 57 182 2.0 2.0 0.00 0.00 0.00 43 1016.2
20200926101701 57 184 0.0 2.0 0.00 0.00 0.00 43 1016.2
20200926101625 57 184 0.0 2.0 0.00 0.00 0.00 43 1016.2
20200926101329 57 184 0.0 2.0 0.00 0.00 0.00 43 1016.2
20200926101225 57 180 1.0 1.0 0.00 0.00 0.00 43 1016.1
20200926100927 57 180 1.0 1.0 0.00 0.00 0.00 43 1016.1
20200926100901 57 182 1.0 1.0 0.00 0.00 0.00 43 1016.2
20200926100526 57 182 1.0 1.0 0.00 0.00 0.00 43 1016.2
20200926100439 57 182 1.0 1.0 0.00 0.00 0.00 43 1016.1
20200926100124 57 182 1.0 1.0 0.00 0.00 0.00 43 1016.1
20200926100048 57 184 1.0 1.0 0.00 0.00 0.00 43 1016.1
20200926095724 57 184 1.0 1.0 0.00 0.00 0.00 43 1016.1
20200926095703 57 182 0.0 1.0 0.00 0.00 0.00 43 1016.1
20200926095325 57 182 0.0 1.0 0.00 0.00 0.00 43 1016.1
20200926094851 57 182 0.0 0.0 0.00 0.00 0.00 43 1016.2
20200926094558 57 182 0.0 0.0 0.00 0.00 0.00 43 1016.2
20200926094522 57 182 0.0 0.0 0.00 0.00 0.00 43 1016.2
20200926094410 57 182 0.0 0.0 0.00 0.00 0.00 43 1016.1
20200926094118 57 182 0.0 0.0 0.00 0.00 0.00 43 1016.1
20200926093607 57 180 0.0 0.0 0.00 0.00 0.00 42 1016.1
20200926093315 57 180 0.0 0.0 0.00 0.00 0.00 42 1016.1
20200926093311 57 180 0.0 0.0 0.00 0.00 0.00 42 1016.2
20200926092914 57 180 0.0 0.0 0.00 0.00 0.00 42 1016.2
20200926092821 57 180 0.0 0.0 0.00 0.00 0.00 42 1016.1
20200926092515 57 180 0.0 0.0 0.00 0.00 0.00 42 1016.1
20200926092404 57 180 0.0 1.0 0.00 0.00 0.00 42 1016.1
20200926092112 57 180 0.0 1.0 0.00 0.00 0.00 42 1016.1
20200926092028 57 180 0.0 0.0 0.00 0.00 0.00 42 1016.1
20200926091711 57 180 0.0 0.0 0.00 0.00 0.00 42 1016.1
20200926091657 57 184 0.0 0.0 0.00 0.00 0.00 42 1016.1
20200926091309 57 184 0.0 0.0 0.00 0.00 0.00 42 1016.1
20200926091205 57 182 0.0 0.0 0.00 0.00 0.00 42 1016.1
20200926090908 57 182 0.0 0.0 0.00 0.00 0.00 42 1016.1
20200926090810 57 180 0.0 0.0 0.00 0.00 0.00 42 1016.1
20200926090509 57 180 0.0 0.0 0.00 0.00 0.00 42 1016.1
20200926090338 57 182 0.0 0.0 0.00 0.00 0.00 42 1016.1
20200926090107 57 182 0.0 0.0 0.00 0.00 0.00 42 1016.1
20200926090017 57 184 0.0 0.0 0.00 0.00 0.00 42 1016.2
20200926085705 57 184 0.0 0.0 0.00 0.00 0.00 42 1016.2
20200926085307 57 180 0.0 0.0 0.00 0.00 0.00 42 1016.2
20200926085154 58 184 0.0 1.0 0.00 0.00 0.00 42 1016.2
20200926084904 58 184 0.0 1.0 0.00 0.00 0.00 42 1016.2
20200926084759 58 180 1.0 1.0 0.00 0.00 0.00 42 1016.2
20200926084510 58 180 1.0 1.0 0.00 0.00 0.00 42 1016.2
20200926084436 58 182 0.0 0.0 0.00 0.00 0.00 42 1016.1
20200926084133 58 180 0.0 0.0 0.00 0.00 0.00 42 1016.0
20200926084102 58 182 0.0 0.0 0.00 0.00 0.00 42 1016.1
20200926083702 58 180 0.0 0.0 0.00 0.00 0.00 42
20200926083658 58 180 0.0 0.0 0.00 0.00 0.00 42 1016.0
20200926083542 58 182 0.0 0.0 0.00 0.00 0.00 42 1016.0
20200926083257 58 182 0.0 0.0 0.00 0.00 0.00 42 1016.0
20200926083222 58 182 0.0 0.0 0.00 0.00 0.00 42 1016.1
20200926082856 58 182 0.0 0.0 0.00 0.00 0.00 42 1016.1
20200926082834 58 180 0.0 1.0 0.00 0.00 0.00 42 1016.1
20200926082453 58 180 0.0 1.0 0.00 0.00 0.00 42 1016.1
20200926082347 58 180 1.0 1.0 0.00 0.00 0.00 42 1016.1
20200926082054 58 180 1.0 1.0 0.00 0.00 0.00 42 1016.1
20200926082015 58 180 0.0 1.0 0.00 0.00 0.00 42 1016.0
20200926081653 58 193 1.0 1.0 0.00 0.00 0.00 42 1016.1
20200926081256 58 193 1.0 1.0 0.00 0.00 0.00 42 1016.1
20200926081210 58 180 0.0 1.0 0.00 0.00 0.00 41 1016.2
20200926080849 58 180 0.0 1.0 0.00 0.00 0.00 41 1016.2
20200926080821 58 180 1.0 1.0 0.00 0.00 0.00 41 1016.2
20200926080447 58 180 1.0 1.0 0.00 0.00 0.00 41 1016.2
20200926080055 58 180 0.0 1.0 0.00 0.00 0.00 41 1016.1
20200926080047 58 184 1.0 1.0 0.00 0.00 0.00 41 1016.1
20200926075645 58 180 0.0 1.0 0.00 0.00 0.00 41 1016.1
20200926075616 58 180 0.0 1.0 0.00 0.00 0.00 41 1016.1
20200926075249 58 180 0.0 1.0 0.00 0.00 0.00 41 1016.1
20200926075159 58 42 1.0 1.0 0.00 0.00 0.00 41 1016.1
20200926074843 58 42 1.0 1.0 0.00 0.00 0.00 41 1016.1
20200926074824 58 45 0.0 1.0 0.00 0.00 0.00 41 1016.2
20200926074442 58 45 0.0 1.0 0.00 0.00 0.00 41 1016.2
20200926074336 58 339 0.0 1.0 0.00 0.00 0.00 41 1016.2
20200926074045 58 337 0.0 0.0 0.00 0.00 0.00 41 1016.2
20200926074041 58 339 0.0 1.0 0.00 0.00 0.00 41 1016.2
20200926073640 58 337 0.0 0.0 0.00 0.00 0.00 41 1016.2
20200926073605 59 315 0.0 0.0 0.00 0.00 0.00 41 1016.2
20200926073238 59 315 0.0 0.0 0.00 0.00 0.00 41 1016.2
20200926072923 59 135 0.0 0.0 0.00 0.00 0.00 40 1016.3
20200926072838 59 310 1.0 1.0 0.00 0.00 0.00 40 1016.2
20200926072436 59 135 0.0 0.0 0.00 0.00 0.00 40 1016.3
20200926072404 59 139 0.0 0.0 0.00 0.00 0.00 40 1016.3
20200926072140 59 139 0.0 0.0 0.00 0.00 0.00 40 1016.3
20200926072034 59 139 0.0 0.0 0.00 0.00 0.00 40 1016.3
20200926072031 59 139 0.0 0.0 0.00 0.00 0.00 40 1016.4
20200926071633 59 139 0.0 0.0 0.00 0.00 0.00 40 1016.4
20200926071542 59 135 0.0 0.0 0.00 0.00 0.00 40 1016.4
20200926071233 59 135 0.0 0.0 0.00 0.00 0.00 40 1016.4
20200926071156 59 137 0.0 0.0 0.00 0.00 0.00 40 1016.4
20200926070832 59 137 0.0 0.0 0.00 0.00 0.00 40 1016.4
20200926070748 59 137 0.0 0.0 0.00 0.00 0.00 40 1016.4
20200926070428 59 137 0.0 0.0 0.00 0.00 0.00 40 1016.4
20200926070350 59 135 0.0 0.0 0.00 0.00 0.00 40 1016.4
20200926070038 59 135 0.0 0.0 0.00 0.00 0.00 40 1016.4
20200926065510 60 135 0.0 2.0 0.00 0.00 0.00 40 1016.5
20200926065229 60 135 0.0 2.0 0.00 0.00 0.00 40 1016.5
20200926065145 60 182 2.0 2.0 0.00 0.00 0.00 40 1016.4
20200926064824 60 182 2.0 2.0 0.00 0.00 0.00 40 1016.4
20200926064320 60 227 0.0 1.0 0.00 0.00 0.00 40 1016.5
20200926064021 60 227 0.0 1.0 0.00 0.00 0.00 40 1016.5
20200926063912 60 186 1.0 1.0 0.00 0.00 0.00 40 1016.5
20200926063620 60 186 1.0 1.0 0.00 0.00 0.00 40 1016.5
20200926063512 60 301 0.0 1.0 0.00 0.00 0.00 39 1016.6
20200926063239 60 225 1.0 2.0 0.00 0.00 0.00 39 1016.6
20200926063218 60 301 0.0 1.0 0.00 0.00 0.00 39 1016.6
20200926063156 60 225 1.0 2.0 0.00 0.00 0.00 39 1016.6
20200926062817 60 225 1.0 2.0 0.00 0.00 0.00 39 1016.6
20200926062720 60 310 1.0 1.0 0.00 0.00 0.00 39 1016.5
20200926062415 60 310 1.0 1.0 0.00 0.00 0.00 39 1016.5
20200926062333 61 315 1.0 1.0 0.00 0.00 0.00 39 1016.6
20200926062027 61 315 1.0 1.0 0.00 0.00 0.00 39 1016.6
20200926061455 61 227 0.0 0.0 0.00 0.00 0.00 39 1016.5
20200926061212 61 227 0.0 0.0 0.00 0.00 0.00 39 1016.5
20200926061105 62 182 0.0 1.0 0.00 0.00 0.00 39 1016.6
20200926060812 62 182 0.0 1.0 0.00 0.00 0.00 39 1016.6
20200926060020 62 157 1.0 1.0 0.00 0.00 0.00 39 1016.6
20200926055607 62 356 0.0 1.0 0.00 0.00 0.00 39 1016.6
20200926055518 62 315 0.0 1.0 0.00 0.00 0.00 39 1016.6
20200926055207 62 315 0.0 1.0 0.00 0.00 0.00 39 1016.6
20200926054808 62 315 1.0 2.0 0.00 0.00 0.00 38 1016.8
20200926054407 62 315 1.0 2.0 0.00 0.00 0.00 38 1016.6
20200926053603 63 0 0.0 1.0 0.00 0.00 0.00 38 1016.5
20200926053201 63 20 0.0 1.0 0.00 0.00 0.00 38 1016.5
20200926052759 63 96 0.0 1.0 0.00 0.00 0.00 38 1016.4
20200926052400 64 180 1.0 1.0 0.00 0.00 0.00 37 1016.5
20200926051956 64 45 0.0 1.0 0.00 0.00 0.00 37 1016.6
20200926051557 64 227 0.0 1.0 0.00 0.00 0.00 37 1016.6
20200926050751 64 315 0.0 1.0 0.00 0.00 0.00 37 1016.5
20200926050350 65 315 1.0 1.0 0.00 0.00 0.00 37 1016.5
20200926045951 65 353 0.0 0.0 0.00 0.00 0.00 37 1016.5
20200926045549 65 357 0.0 0.0 0.00 0.00 0.00 37 1016.4
20200926045147 65 344 0.0 1.0 0.00 0.00 0.00 36 1016.5
20200926044744 66 180 0.0 0.0 0.00 0.00 0.00 36 1016.4
20200926044344 66 180 0.0 0.0 0.00 0.00 0.00 36 1016.4
20200926043942 66 182 1.0 1.0 0.00 0.00 0.00 36 1016.4
20200926043542 67 180 1.0 1.0 0.00 0.00 0.00 36 1016.3
20200926043144 67 216 2.0 2.0 0.00 0.00 0.00 36 1016.3
20200926043141 67 216 2.0 2.0 0.00 0.00 0.00 36 1016.3
20200926042739 67 227 1.0 2.0 0.00 0.00 0.00 36 1016.3
20200926042338 67 345 0.0 3.0 0.00 0.00 0.00 35 1016.3
20200926041936 67 45 3.0 3.0 0.00 0.00 0.00 35 1016.3
20200926041540 67 45 2.0 2.0 0.00 0.00 0.00 35 1016.3
20200926040732 68 0 0.0 0.0 0.00 0.00 0.00 34 1016.3
20200926040331 68 141 0.0 3.0 0.00 0.00 0.00 34 1016.2
20200926035929 69 90 2.0 4.0 0.00 0.00 0.00 34 1016.2
20200926035532 69 92 3.0 3.0 0.00 0.00 0.00 34 1016.2
20200926035129 69 101 2.0 4.0 0.00 0.00 0.00 34 1016.1
20200926034726 69 121 3.0 5.0 0.00 0.00 0.00 34 1016.2
20200926034325 69 112 3.0 4.0 0.00 0.00 0.00 33 1016.0
20200926034017 69 96 1.0 3.0 0.00 0.00 0.00 33 1016.1
20200926033926 69 96 1.0 3.0 0.00 0.00 0.00 33 1016.1
20200926033121 70 92 2.0 3.0 0.00 0.00 0.00 33 1016.2
20200926032719 70 94 2.0 3.0 0.00 0.00 0.00 33 1016.1
20200926031921 71 45 0.0 1.0 0.00 0.00 0.00 32 1016.0
20200926031517 71 105 2.0 2.0 0.00 0.00 0.00 32 1015.9
20200926030349 71 94 3.0 4.0 0.00 0.00 0.00 31 1015.8
20200926030311 71 94 3.0 4.0 0.00 0.00 0.00 31 1015.8
20200926025949 71 92 2.0 4.0 0.00 0.00 0.00 31 1015.8
20200926025911 71 92 2.0 4.0 0.00 0.00 0.00 31 1015.8
20200926025145 72 94 4.0 4.0 0.00 0.00 0.00 31 1015.6
20200926025108 72 94 4.0 4.0 0.00 0.00 0.00 31 1015.6
20200926024738 72 87 2.0 4.0 0.00 0.00 0.00 30 1015.6
20200926024707 72 87 2.0 4.0 0.00 0.00 0.00 30 1015.6
20200926024308 72 96 3.0 4.0 0.00 0.00 0.03 30 1015.6
20200926024305 72 96 3.0 4.0 0.00 0.00 0.00 30 1015.6
20200926023905 73 87 4.0 6.0 0.00 0.00 0.00 30 1015.6
20200926023504 73 90 7.0 7.0 0.00 0.00 0.00 30 1015.4
20200926023150 73 92 5.0 8.0 0.00 0.00 0.00 29 1015.4
20200926023102 73 92 5.0 8.0 0.00 0.00 0.00 29 1015.4
20200926022753 73 94 7.0 8.0 0.00 0.00 0.00 29 1015.4
20200926022702 73 94 7.0 8.0 0.00 0.00 0.00 29 1015.4
20200926022300 74 108 6.0 8.0 0.00 0.00 0.00 29 1015.4
20200926021858 74 96 6.0 6.0 0.00 0.00 0.00 28 1015.4
20200926021459 74 87 5.0 7.0 0.00 0.00 0.00 28 1015.5
20200926021055 75 92 7.0 8.0 0.00 0.00 0.00 28 1015.3
20200926020736 75 96 6.0 7.0 0.00 0.00 0.00 28 1015.3
20200926020656 75 96 6.0 7.0 0.00 0.00 0.00 28 1015.3
20200926015854 75 130 8.0 8.0 0.00 0.00 0.00 27 1015.2
20200926015450 76 123 9.0 10.0 0.00 0.00 0.00 27 1015.2
20200926015048 76 135 6.0 10.0 0.00 0.00 0.00 27 1015.2
20200926014722 76 85 8.0 10.0 0.00 0.00 0.00 27 1015.2
20200926014648 76 85 8.0 10.0 0.00 0.00 0.00 27 1015.2
20200926014247 76 123 8.0 10.0 0.00 0.00 0.00 26 1015.2
20200926013918 76 121 7.0 9.0 0.00 0.00 0.00 26 1015.2
20200926013845 76 121 7.0 9.0 0.00 0.00 0.00 26 1015.2
20200926013514 76 130 8.0 10.0 0.00 0.00 0.00 26 1015.1
20200926013443 76 130 8.0 10.0 0.00 0.00 0.00 26 1015.1
20200926013042 77 126 9.0 11.0 0.00 0.00 0.00 26 1015.1
20200926012243 77 130 8.0 11.0 0.00 0.00 0.00 26 1015.0
20200926011839 77 112 6.0 10.0 0.00 0.00 0.00 26 1015.0
20200926011440 78 144 7.0 10.0 0.00 0.00 0.00 25 1015.0
20200926011038 78 112 10.0 12.0 0.00 0.00 0.00 25 1015.0
20200926010634 78 105 6.0 10.0 0.00 0.00 0.00 25 1015.0
20200926010239 79 132 7.0 10.0 0.00 0.00 0.00 25 1015.0
20200926010233 79 132 7.0 10.0 0.00 0.00 0.00 25 1015.0
20200926005906 79 130 3.0 9.0 0.00 0.00 0.00 25 1015.0
20200926005832 79 130 3.0 9.0 0.00 0.00 0.00 25 1015.0
20200926005431 79 121 9.0 12.0 0.00 0.00 0.00 25 1015.0
20200926005112 80 127 11.0 15.0 0.00 0.00 0.00 25 1015.0
20200926005036 80 127 11.0 15.0 0.00 0.00 0.00 25 1015.0
20200926003914 81 112 8.0 10.0 0.00 0.00 0.00 24 1014.9
20200926003829 81 112 8.0 10.0 0.00 0.00 0.00 24 1014.9
20200926003027 82 121 7.0 11.0 0.00 0.00 0.00 24 1014.7
20200926002616 82 121 9.0 10.0 0.00 0.00 0.00 24 1014.9
20200926002214 82 109 9.0 13.0 0.00 0.00 0.00 24 1014.8
20200926001813 83 121 7.0 12.0 0.00 0.00 0.00 24 1014.8
20200926001415 83 75 3.0 10.0 0.00 0.00 0.00 24 1014.9
20200926001020 84 114 8.0 12.0 0.00 0.00 0.00 24 1014.9
20200926000610 84 119 8.0 12.0 0.00 0.00 0.00 24 1014.8
20200926000208 84 92 8.0 10.0 0.00 0.00 0.00 24 1014.7
20200925235806 85 107 7.0 11.0 0.00 0.00 0.00 24 1014.8
20200925235406 85 94 11.0 13.0 0.00 0.00 0.00 24 1014.8
20200925235019 87 157 2.0 8.0 0.00 0.00 0.00 25 1014.9
20200925234603 87 120 7.0 7.0 0.00 0.00 0.00 24 1014.8
20200925234205 88 175 4.0 7.0 0.00 0.00 0.00 24 1015.0
20200925233800 87 105 3.0 8.0 0.00 0.00 0.00 25 1014.9
20200925233403 88 135 1.0 7.0 0.00 0.00 0.00 25 1014.8
20200925232958 88 182 7.0 7.0 0.00 0.00 0.00 25 1014.7
20200925232558 89 112 2.0 6.0 0.00 0.00 0.00 25 1014.9
20200925232156 89 186 6.0 6.0 0.00 0.00 0.00 25 1014.9
20200925231756 89 333 1.0 9.0 0.00 0.00 0.00 25 1014.9
20200925231352 89 146 2.0 6.0 0.00 0.00 0.00 24 1014.9
20200925230951 89 159 4.0 8.0 0.00 0.00 0.00 24 1014.9
20200925230550 88 114 6.0 6.0 0.00 0.00 0.00 24 1014.9
20200925225750 89 180 2.0 6.0 0.00 0.00 0.00 24 1015.0
20200925225351 89 137 3.0 11.0 0.00 0.00 0.00 24 1015.0
20200925225024 90 182 6.0 13.0 0.00 0.00 0.00 24 1014.9
20200925224945 90 182 6.0 13.0 0.00 0.00 0.00 24 1014.9
20200925224543 90 144 3.0 14.0 0.00 0.00 0.00 24 1015.0
20200925224143 89 93 4.0 11.0 0.00 0.00 0.00 24 1015.0
20200925223741 91 126 5.0 6.0 0.00 0.00 0.00 24 1014.9
20200925222943 90 153 3.0 14.0 0.00 0.00 0.00 24 1015.0
20200925222537 90 182 14.0 14.0 0.00 0.00 0.00 24 1014.9
20200925222136 91 108 7.0 8.0 0.00 0.00 0.00 24 1015.0
20200925221735 91 162 4.0 7.0 0.00 0.00 0.00 24 1015.0
20200925221343 90 182 7.0 12.0 0.00 0.00 0.00 24 1015.1
20200925220932 90 173 6.0 9.0 0.00 0.00 0.00 24 1015.1
20200925220212 88 182 3.0 13.0 0.00 0.00 0.00 24 1015.1
20200925220131 88 182 3.0 13.0 0.00 0.00 0.00 24 1015.1
20200925215804 88 126 10.0 13.0 0.00 0.00 0.00 24 1015.2
20200925215728 88 126 10.0 13.0 0.00 0.00 0.00 24 1015.2
20200925215328 90 165 6.0 9.0 0.00 0.00 0.00 24 1015.3
20200925214926 90 177 5.0 12.0 0.00 0.00 0.00 24 1015.2
20200925214535 89 160 7.0 11.0 0.00 0.00 0.00 24 1015.2
20200925213758 90 114 6.0 9.0 0.00 0.00 0.00 25 1015.2
20200925213722 90 114 6.0 9.0 0.00 0.00 0.00 25 1015.2
20200925213321 91 117 5.0 9.0 0.00 0.00 0.00 25 1015.3
20200925212520 90 118 2.0 14.0 0.00 0.00 0.00 25 1015.3
20200925212153 91 174 3.0 12.0 0.00 0.00 0.00 25 1015.3
20200925212117 91 174 3.0 12.0 0.00 0.00 0.00 25 1015.3
20200925211717 92 163 2.0 8.0 0.00 0.00 0.00 25 1015.4
20200925211314 92 78 3.0 12.0 0.00 0.00 0.00 25 1015.5
20200925210519 93 157 4.0 7.0 0.00 0.00 0.00 26 1015.4
20200925210110 93 127 5.0 7.0 0.00 0.00 0.00 26 1015.5
20200925205709 92 175 4.0 7.0 0.00 0.00 0.00 26 1015.6
20200925205316 91 157 4.0 8.0 0.00 0.00 0.00 26 1015.6
20200925204907 91 155 3.0 9.0 0.00 0.00 0.00 26 1015.6
20200925204508 91 180 8.0 9.0 0.00 0.00 0.00 26 1015.7
20200925204106 90 114 6.0 12.0 0.00 0.00 0.00 26 1015.7
20200925203705 88 121 11.0 13.0 0.00 0.00 0.00 26 1015.7
20200925203301 88 117 12.0 12.0 0.00 0.00 0.00 26 1015.7
20200925202900 89 130 8.0 13.0 0.00 0.00 0.00 27 1015.8
20200925202538 90 117 10.0 10.0 0.00 0.00 0.00 27 1015.9
20200925202459 90 117 10.0 10.0 0.00 0.00 0.00 27 1015.9
20200925202057 91 182 4.0 7.0 0.00 0.00 0.00 27 1016.0
20200925201729 89 141 4.0 10.0 0.00 0.00 0.00 27 1016.1
20200925201656 89 141 4.0 10.0 0.00 0.00 0.00 27 1016.1
20200925201356 89 110 4.0 10.0 0.00 0.00 0.00 27 1016.0
20200925201256 89 110 4.0 10.0 0.00 0.00 0.00 27 1016.0
20200925200954 89 114 7.0 11.0 0.00 0.00 0.00 28 1016.1
20200925200854 89 114 7.0 11.0 0.00 0.00 0.00 28 1016.1
20200925200453 90 108 8.0 10.0 0.00 0.00 0.00 28 1016.1
20200925200051 90 173 4.0 9.0 0.00 0.00 0.00 28 1016.2
20200925195742 90 121 6.0 11.0 0.00 0.00 0.00 28 1016.1
20200925195650 90 121 6.0 11.0 0.00 0.00 0.00 28 1016.1
20200925195332 91 114 10.0 10.0 0.00 0.00 0.00 28 1016.2
20200925195249 91 114 10.0 10.0 0.00 0.00 0.00 28 1016.2
20200925194120 91 110 10.0 11.0 0.00 0.00 0.00 28 1016.3
20200925194046 91 110 10.0 11.0 0.00 0.00 0.00 28 1016.3
20200925193643 92 182 2.0 5.0 0.00 0.00 0.00 28 1016.4
20200925193320 91 166 2.0 6.0 0.00 0.00 0.00 29 1016.3
20200925193242 91 166 2.0 6.0 0.00 0.00 0.00 29 1016.3
20200925192841 91 77 2.0 6.0 0.00 0.00 0.00 29 1016.4
20200925192441 90 110 4.0 8.0 0.00 0.00 0.00 29 1016.4
20200925192039 90 148 6.0 8.0 0.00 0.00 0.00 29 1016.4
20200925191638 91 175 6.0 6.0 0.00 0.00 0.00 30 1016.5
20200925191314 90 177 6.0 6.0 0.00 0.00 0.00 30 1016.5
20200925191236 90 177 6.0 6.0 0.00 0.00 0.00 30 1016.5
20200925190834 87 147 4.0 10.0 0.00 0.00 0.00 30 1016.7
20200925190438 88 56 4.0 7.0 0.00 0.00 0.00 30 1016.6
20200925190103 88 85 1.0 5.0 0.00 0.00 0.00 30 1016.7
20200925190034 88 85 1.0 5.0 0.00 0.00 0.00 30 1016.7
20200925185631 86 127 5.0 9.0 0.00 0.00 0.00 31 1016.7
20200925185307 85 348 4.0 12.0 0.00 0.00 0.00 31 1016.7
20200925185233 85 348 4.0 12.0 0.00 0.00 0.00 31 1016.7
20200925184427 86 18 5.0 7.0 0.00 0.00 0.00 31 1016.7
20200925183624 85 45 6.0 8.0 0.00 0.00 0.00 32 1016.8
20200925183226 85 99 6.0 11.0 0.00 0.00 0.00 32 1016.9
20200925182900 87 105 4.0 6.0 0.00 0.00 0.00 32 1016.9
20200925182822 87 105 4.0 6.0 0.00 0.00 0.00 32 1016.9
20200925182422 86 69 4.0 7.0 0.00 0.00 0.00 32 1016.9
20200925182023 85 99 7.0 9.0 0.00 0.00 0.00 33 1016.9
20200925181618 84 57 5.0 10.0 0.00 0.00 0.00 33 1016.9
20200925181217 85 83 6.0 8.0 0.00 0.00 0.00 33 1016.9
20200925180817 85 90 6.0 9.0 0.00 0.00 0.00 34 1016.9
20200925180509 85 60 6.0 8.0 0.00 0.00 0.00 34 1016.9
20200925180414 85 60 6.0 8.0 0.00 0.00 0.00 34 1016.9
20200925180029 85 101 6.0 9.0 0.00 0.00 0.00 34 1016.9
20200925175644 85 67 7.0 9.0 0.00 0.00 0.00 34 1016.9
20200925175613 85 67 7.0 9.0 0.00 0.00 0.00 34 1016.9
20200925175211 85 128 7.0 10.0 0.00 0.00 0.00 35 1016.9
20200925174852 85 105 5.0 8.0 0.00 0.00 0.00 35 1016.9
20200925174810 85 105 5.0 8.0 0.00 0.00 0.00 35 1016.9
20200925174410 85 77 3.0 9.0 0.00 0.00 0.00 35 1016.9
20200925174018 85 99 5.0 7.0 0.00 0.00 0.00 35 1016.9
20200925173204 85 70 4.0 6.0 0.00 0.00 0.00 36 1016.9
20200925172402 85 107 2.0 3.0 0.00 0.00 0.00 37 1017.0
20200925172000 85 191 1.0 3.0 0.00 0.00 0.00 37 1017.1
20200925171559 85 170 3.0 4.0 0.00 0.00 0.00 37 1017.0
20200925171202 84 182 2.0 5.0 0.00 0.00 0.00 38 1017.1
20200925170812 83 148 1.0 4.0 0.00 0.00 0.00 38 1017.1
20200925165955 82 102 1.0 5.0 0.00 0.00 0.00 38 1017.0
20200925165633 81 135 1.0 5.0 0.00 0.00 0.00 39 1017.0
20200925165556 81 135 1.0 5.0 0.00 0.00 0.00 39 1017.0
20200925165151 80 99 2.0 6.0 0.00 0.00 0.00 39 1016.9
20200925164750 81 80 1.0 1.0 0.00 0.00 0.00 39 1016.9
20200925164349 80 200 2.0 2.0 0.00 0.00 0.00 40 1016.8
20200925163947 79 184 2.0 2.0 0.00 0.00 0.00 40 1016.8
20200925163546 78 184 1.0 2.0 0.00 0.00 0.00 40 1016.8
20200925163145 76 42 0.0 2.0 0.00 0.00 0.00 40 1016.7
20200925162744 76 15 1.0 1.0 0.00 0.00 0.00 40 1016.7
20200925162343 76 321 1.0 2.0 0.00 0.00 0.00 41 1016.7
20200925161941 76 321 1.0 2.0 0.00 0.00 0.00 41 1016.7
20200925161625 75 45 1.0 1.0 0.00 0.00 0.00 41 1016.6
20200925161539 75 45 1.0 1.0 0.00 0.00 0.00 41 1016.6
20200925161222 74 351 0.0 2.0 0.00 0.00 0.00 41 1016.6
20200925161138 74 351 0.0 2.0 0.00 0.00 0.00 41 1016.6
20200925160737 73 344 2.0 3.0 0.00 0.00 0.00 41 1016.6
20200925160338 73 339 1.0 2.0 0.00 0.00 0.00 41 1016.7
20200925155934 72 351 2.0 2.0 0.00 0.00 0.00 41 1016.5
20200925155533 72 346 1.0 1.0 0.00 0.00 0.00 41 1016.5
20200925155133 71 45 0.0 1.0 0.00 0.00 0.00 42 1016.4
20200925154732 70 339 1.0 3.0 0.00 0.00 0.00 42 1016.4
20200925154330 70 310 1.0 1.0 0.00 0.00 0.00 42 1016.4
20200925153928 69 337 0.0 0.0 0.00 0.00 0.00 42 1016.4
20200925153527 68 337 0.0 1.0 0.00 0.00 0.00 42 1016.4
20200925153131 0 135 1.0 1.0 0.00 0.00 0.00 42 1016.4
20200925153126 67 135 1.0 1.0 0.00 0.00 0.00 42 1016.4
20200925152725 67 310 0.0 0.0 0.00 0.00 0.00 43 1016.3
20200925152324 66 315 0.0 0.0 0.00 0.00 0.00 43 1016.3